STARLINK-1769 (46382 NORAD) Tracking and Keplerian Element Data

This shows tracking and keplerian element data for the satellite.

Feedback or suggestion? Click here.




ElementValue
Catalog46382
NameSTARLINK-1769
Epoch Orbit181
Epoch Day335.91670139
Epoch Year2020
RAAN355.655
Inclination52.9976
Eccentricity0.0002187
Argument of Perigee21.9018
Mean Anonmoly73.4297
Mean Motion15.62748147
Decay Rate-0.00018988
L11 46382U 20062BK 20335.91670139 -.00018988 00000-0 -20202-3 0 9997
L22 46382 52.9976 355.6550 0002187 21.9018 73.4297 15.62748147 1818

Live tracking and technical data element details for STARLINK-1769 (NORAD 46382). STARLINK-1769 can be tracked NOW for your location showing map with azimuth and elevation plus other details from your city location.

Track the satellite on the map from your city or location and see movement details for azimuth, elevation, latitude, longitude, range, height, and movement on the map or in text.







IsCatalogInMostPopularTable: catalog: 46382, numindb: 35
Update: records affected: 1



GetName: 46382 STARLINK-1769

Hit Count: updated at: Wed, 02 Dec 2020 06:37:19 GMT